BAW493U LXGB-EGLL

Flight info

Callsign BAW493U
Flight time 2h 23m
Altitude 36000
Route PIMOS N869 BLN N865 VTB N867 NENEM DCT PEXOD DCT YURZI UL14 TEPRA UN867 MOKOR/N0449F340 UP87 ROXOG
Aircraft A320/M-SDE3FGHIRWY/LB1

Departure

Time 2026-05-05 17:29
Airport Gibraltar Airport (LXGB)

Arrival

Time 2026-05-05 19:53
Airport London Heathrow Airport (EGLL)
Time Latitude Longitude Altitude Speed Heading
2026-05-05 16:57 36.15299 -5.34675 19 ft 0 kts 356°
2026-05-05 17:21 36.15296 -5.34675 18 ft 2 kts 356°
2026-05-05 17:22 36.15259 -5.34672 18 ft 3 kts 359°
2026-05-05 17:22 36.15239 -5.34672 18 ft 3 kts 358°
2026-05-05 17:22 36.15221 -5.34671 18 ft 3 kts 22°
2026-05-05 17:22 36.15206 -5.34682 20 ft 3 kts
2026-05-05 17:23 36.15187 -5.34682 19 ft 3 kts 358°
2026-05-05 17:23 36.15175 -5.34682 18 ft 0 kts 358°
2026-05-05 17:25 36.15176 -5.34682 18 ft 0 kts 358°
2026-05-05 17:26 36.15201 -5.34678 18 ft 5 kts 15°
2026-05-05 17:26 36.15226 -5.34645 18 ft 6 kts 81°
2026-05-05 17:26 36.15228 -5.34568 18 ft 11 kts 88°
2026-05-05 17:26 36.15232 -5.34458 19 ft 14 kts 88°
2026-05-05 17:27 36.15237 -5.34319 18 ft 19 kts 87°
2026-05-05 17:27 36.15210 -5.34235 17 ft 11 kts 164°
2026-05-05 17:27 36.15145 -5.34259 15 ft 9 kts 263°
2026-05-05 17:27 36.15143 -5.34282 15 ft 0 kts 265°
2026-05-05 17:28 36.15139 -5.34445 16 ft 54 kts 268°
2026-05-05 17:28 36.15113 -5.35202 20 ft 117 kts 267°
2026-05-05 17:29 36.15078 -5.35912 77 ft 142 kts 266°
2026-05-05 17:29 36.15072 -5.36043 127 ft 142 kts 266°
2026-05-05 17:29 36.15044 -5.36761 470 ft 147 kts 265°
2026-05-05 17:29 36.14991 -5.38053 1076 ft 155 kts 267°
2026-05-05 17:30 36.14946 -5.39445 1371 ft 170 kts 268°
2026-05-05 17:30 36.14890 -5.41000 1440 ft 192 kts 266°
2026-05-05 17:30 36.14544 -5.42652 1363 ft 207 kts 244°
2026-05-05 17:30 36.13598 -5.44028 1323 ft 214 kts 217°
2026-05-05 17:31 36.12224 -5.44580 2292 ft 203 kts 186°
2026-05-05 17:31 36.10873 -5.44205 3075 ft 206 kts 153°
2026-05-05 17:31 36.09774 -5.42916 3113 ft 239 kts 118°
2026-05-05 17:31 36.09464 -5.40897 2986 ft 244 kts 83°
2026-05-05 17:32 36.09701 -5.38784 2917 ft 254 kts 80°
2026-05-05 17:32 36.09968 -5.36626 3701 ft 252 kts 80°
2026-05-05 17:32 36.10226 -5.34490 4598 ft 250 kts 80°
2026-05-05 17:32 36.10473 -5.32374 5409 ft 249 kts 81°
2026-05-05 17:33 36.10715 -5.30245 6189 ft 250 kts 81°
2026-05-05 17:33 36.10951 -5.28134 6886 ft 252 kts 81°
2026-05-05 17:33 36.11194 -5.25934 7504 ft 258 kts 82°
2026-05-05 17:33 36.11438 -5.23696 8119 ft 266 kts 82°
2026-05-05 17:34 36.11682 -5.21414 8804 ft 269 kts 82°
2026-05-05 17:34 36.11927 -5.19078 9281 ft 284 kts 82°
2026-05-05 17:34 36.12187 -5.16592 9557 ft 304 kts 82°
2026-05-05 17:34 36.12463 -5.13969 10114 ft 312 kts 82°
2026-05-05 17:35 36.12758 -5.11209 10286 ft 335 kts 82°
2026-05-05 17:35 36.13072 -5.08260 10418 ft 357 kts 82°
2026-05-05 17:35 36.13401 -5.05141 10681 ft 372 kts 82°
2026-05-05 17:35 36.13732 -5.01948 11224 ft 377 kts 83°
2026-05-05 17:36 36.14066 -4.98717 11819 ft 381 kts 83°
2026-05-05 17:36 36.14442 -4.95455 12425 ft 385 kts 77°
2026-05-05 17:36 36.15262 -4.92284 12876 ft 391 kts 64°
2026-05-05 17:36 36.16643 -4.89368 13394 ft 393 kts 50°
2026-05-05 17:37 36.18491 -4.86891 13943 ft 393 kts 37°
2026-05-05 17:37 36.19938 -4.85531 14256 ft 392 kts 29°
2026-05-05 17:37 36.22250 -4.83734 14800 ft 394 kts 29°
2026-05-05 17:37 36.24581 -4.81915 15299 ft 397 kts 28°
2026-05-05 17:38 36.26926 -4.80075 15845 ft 399 kts 29°
2026-05-05 17:38 36.29286 -4.78216 16327 ft 403 kts 30°
2026-05-05 17:38 36.31655 -4.76347 16890 ft 405 kts 28°
2026-05-05 17:38 36.34051 -4.74461 17386 ft 409 kts 29°
2026-05-05 17:39 36.36461 -4.72568 17939 ft 412 kts 29°
2026-05-05 17:39 36.38890 -4.70663 18420 ft 416 kts 30°
2026-05-05 17:39 36.41346 -4.68731 18948 ft 418 kts 29°
2026-05-05 17:39 36.43809 -4.66786 19476 ft 420 kts 29°
2026-05-05 17:40 36.46284 -4.64829 19964 ft 423 kts 29°
2026-05-05 17:40 36.48777 -4.62861 20445 ft 427 kts 29°
2026-05-05 17:40 36.51298 -4.60872 20889 ft 430 kts 29°
2026-05-05 17:40 36.53829 -4.58877 21326 ft 433 kts 29°
2026-05-05 17:41 36.56347 -4.56889 21724 ft 436 kts 29°
2026-05-05 17:41 36.58922 -4.54855 22102 ft 440 kts 29°
2026-05-05 17:41 36.61522 -4.52798 22485 ft 444 kts 29°
2026-05-05 17:41 36.64134 -4.50728 22856 ft 447 kts 29°
2026-05-05 17:42 36.66763 -4.48640 23269 ft 449 kts 29°
2026-05-05 17:42 36.69397 -4.46544 23702 ft 450 kts 29°
2026-05-05 17:42 36.72039 -4.44440 24024 ft 452 kts 29°
2026-05-05 17:42 36.74695 -4.42327 24333 ft 454 kts 28°
2026-05-05 17:43 36.77365 -4.40203 24641 ft 457 kts 28°
2026-05-05 17:43 36.80055 -4.38060 24947 ft 459 kts 28°
2026-05-05 17:43 36.82854 -4.36168 25240 ft 457 kts 20°
2026-05-05 17:43 36.85704 -4.34619 25511 ft 459 kts 19°
2026-05-05 17:44 36.88648 -4.33020 25777 ft 462 kts 19°
2026-05-05 17:44 36.91594 -4.31415 26100 ft 464 kts 19°
2026-05-05 17:44 36.94562 -4.29793 26410 ft 466 kts 19°
2026-05-05 17:44 36.97537 -4.28161 26706 ft 468 kts 19°
2026-05-05 17:45 37.00527 -4.26518 26999 ft 470 kts 19°
2026-05-05 17:45 37.03517 -4.24871 27394 ft 470 kts 19°
2026-05-05 17:45 37.06510 -4.23222 27828 ft 470 kts 19°
2026-05-05 17:45 37.09505 -4.21573 28255 ft 470 kts 18°
2026-05-05 17:46 37.12495 -4.19923 28672 ft 470 kts 18°
2026-05-05 17:46 37.15444 -4.18296 29096 ft 469 kts 18°
2026-05-05 17:46 37.18436 -4.16648 29573 ft 468 kts 18°
2026-05-05 17:46 37.21418 -4.15008 30034 ft 467 kts 18°
2026-05-05 17:47 37.24392 -4.13369 30385 ft 467 kts 18°
2026-05-05 17:47 37.27367 -4.11724 30708 ft 467 kts 18°
2026-05-05 17:47 37.30338 -4.10077 31040 ft 467 kts 18°
2026-05-05 17:47 37.33313 -4.08430 31365 ft 467 kts 18°
2026-05-05 17:48 37.36289 -4.06781 31684 ft 468 kts 18°
2026-05-05 17:48 37.39269 -4.05127 32023 ft 468 kts 18°
2026-05-05 17:48 37.42249 -4.03469 32408 ft 468 kts 18°
2026-05-05 17:48 37.45229 -4.01807 32766 ft 468 kts 18°
2026-05-05 17:49 37.48202 -4.00150 33130 ft 467 kts 18°
2026-05-05 17:49 37.51177 -3.98494 33493 ft 467 kts 18°
2026-05-05 17:49 37.54149 -3.96843 33829 ft 467 kts 18°
2026-05-05 17:49 37.57138 -3.95185 33942 ft 470 kts 18°
2026-05-05 17:50 37.60154 -3.93512 33965 ft 477 kts 18°
2026-05-05 17:50 37.66291 -3.90089 33977 ft 485 kts 18°
2026-05-05 17:51 37.72438 -3.86625 33956 ft 484 kts 18°
2026-05-05 17:51 37.78592 -3.83167 33942 ft 484 kts 18°
2026-05-05 17:52 37.84709 -3.79744 33945 ft 485 kts 18°
2026-05-05 17:52 37.90924 -3.76251 33975 ft 486 kts 18°
2026-05-05 17:53 37.97070 -3.72777 33959 ft 487 kts 18°
2026-05-05 17:53 38.03260 -3.69271 33958 ft 487 kts 18°
2026-05-05 17:54 38.09450 -3.65763 33954 ft 488 kts 18°
2026-05-05 17:54 38.15756 -3.62777 33983 ft 476 kts
2026-05-05 17:55 38.22229 -3.61803 33968 ft 465 kts 356°
2026-05-05 17:55 38.28694 -3.61181 33963 ft 466 kts 356°
2026-05-05 17:56 38.35155 -3.60547 33962 ft 466 kts 356°
2026-05-05 17:56 38.41626 -3.59913 33959 ft 466 kts 356°
2026-05-05 17:57 38.48099 -3.59292 33963 ft 466 kts 356°
2026-05-05 17:57 38.54535 -3.58672 33966 ft 466 kts 356°
2026-05-05 17:58 38.61003 -3.58050 33996 ft 466 kts 356°
2026-05-05 17:58 38.67470 -3.57410 33982 ft 465 kts 356°
2026-05-05 17:59 38.73917 -3.56775 33978 ft 464 kts 356°
2026-05-05 17:59 38.80351 -3.56141 33970 ft 464 kts 356°
2026-05-05 18:00 38.86784 -3.55498 33958 ft 461 kts 355°
2026-05-05 18:00 38.93156 -3.54869 33951 ft 458 kts 355°
2026-05-05 18:01 38.99523 -3.54253 33954 ft 459 kts 355°
2026-05-05 18:01 39.05892 -3.53631 33958 ft 459 kts 355°
2026-05-05 18:02 39.12263 -3.52996 33979 ft 459 kts 355°
2026-05-05 18:02 39.18635 -3.52353 33968 ft 459 kts 355°
2026-05-05 18:03 39.24961 -3.51722 33961 ft 459 kts 355°
2026-05-05 18:03 39.31320 -3.51088 33981 ft 458 kts 356°
2026-05-05 18:04 39.37671 -3.50460 33949 ft 457 kts 356°
2026-05-05 18:04 39.44011 -3.49821 33949 ft 457 kts 356°
2026-05-05 18:05 39.50365 -3.49181 33946 ft 457 kts 356°
2026-05-05 18:05 39.56702 -3.48546 33984 ft 457 kts 356°
2026-05-05 18:06 39.63037 -3.47907 33978 ft 456 kts 356°
2026-05-05 18:06 39.69306 -3.47273 33969 ft 455 kts 356°
2026-05-05 18:07 39.75619 -3.46637 33991 ft 455 kts 356°
2026-05-05 18:07 39.81939 -3.45834 33977 ft 458 kts 360°
2026-05-05 18:08 39.88260 -3.44542 33969 ft 460 kts
2026-05-05 18:08 39.94573 -3.43112 33967 ft 460 kts
2026-05-05 18:09 40.00888 -3.41787 33962 ft 459 kts
2026-05-05 18:09 40.07195 -3.40541 33949 ft 458 kts
2026-05-05 18:10 40.13502 -3.39307 33954 ft 458 kts
2026-05-05 18:10 40.19807 -3.38037 33951 ft 459 kts
2026-05-05 18:11 40.26110 -3.36758 33971 ft 458 kts
2026-05-05 18:11 40.32403 -3.35483 33966 ft 457 kts
2026-05-05 18:12 40.38695 -3.34198 33960 ft 457 kts
2026-05-05 18:12 40.44931 -3.32927 33965 ft 456 kts 360°
2026-05-05 18:13 40.51167 -3.31652 33946 ft 453 kts 360°
2026-05-05 18:13 40.57397 -3.30390 33942 ft 453 kts 359°
2026-05-05 18:14 40.63625 -3.29130 33946 ft 453 kts 360°
2026-05-05 18:14 40.69865 -3.27854 33949 ft 454 kts 360°
2026-05-05 18:15 40.76106 -3.26572 33951 ft 454 kts 360°
2026-05-05 18:15 40.82349 -3.25285 33957 ft 454 kts 360°
2026-05-05 18:16 40.88598 -3.23977 34001 ft 455 kts
2026-05-05 18:16 40.94845 -3.22576 33995 ft 455 kts
2026-05-05 18:17 41.01082 -3.21152 33990 ft 455 kts
2026-05-05 18:17 41.07320 -3.19742 33990 ft 455 kts
2026-05-05 18:18 41.13563 -3.18336 34002 ft 454 kts
2026-05-05 18:18 41.19767 -3.16941 33993 ft 454 kts
2026-05-05 18:19 41.26002 -3.15533 34000 ft 454 kts
2026-05-05 18:19 41.32245 -3.14125 34030 ft 455 kts
2026-05-05 18:20 41.34359 -3.13651 34028 ft 455 kts
2026-05-05 18:21 41.56447 -3.08629 34024 ft 456 kts
2026-05-05 18:22 41.62681 -3.08270 34011 ft 447 kts 352°
2026-05-05 18:22 41.68873 -3.08431 34011 ft 448 kts 352°
2026-05-05 18:23 41.75104 -3.08602 34031 ft 448 kts 352°
2026-05-05 18:23 41.81211 -3.08765 34021 ft 449 kts 353°
2026-05-05 18:24 41.87457 -3.08929 34016 ft 449 kts 352°
2026-05-05 18:24 41.93705 -3.09103 34018 ft 449 kts 352°
2026-05-05 18:25 41.99757 -3.09271 34031 ft 450 kts 353°
2026-05-05 18:25 42.06035 -3.09439 34021 ft 451 kts 353°
2026-05-05 18:26 42.12274 -3.09608 34023 ft 451 kts 353°
2026-05-05 18:26 42.18554 -3.09780 34042 ft 452 kts 353°
2026-05-05 18:27 42.24696 -3.09945 34040 ft 452 kts 353°
2026-05-05 18:27 42.30999 -3.10114 34037 ft 452 kts 353°
2026-05-05 18:28 42.40192 -3.10368 34061 ft 452 kts 354°
2026-05-05 18:28 42.46500 -3.10539 34053 ft 452 kts 354°
2026-05-05 18:29 42.52790 -3.10709 34048 ft 452 kts 354°
2026-05-05 18:29 42.59089 -3.10884 34063 ft 452 kts 354°
2026-05-05 18:30 42.65384 -3.11065 34049 ft 452 kts 354°
2026-05-05 18:30 42.71672 -3.11242 34045 ft 452 kts 354°
2026-05-05 18:31 42.77967 -3.11408 34042 ft 452 kts 354°
2026-05-05 18:31 42.84267 -3.11581 34039 ft 452 kts 354°
2026-05-05 18:32 42.90526 -3.11758 34040 ft 453 kts 354°
2026-05-05 18:32 42.96826 -3.11934 34041 ft 453 kts 354°
2026-05-05 18:33 43.03132 -3.12113 34058 ft 452 kts 355°
2026-05-05 18:33 43.09425 -3.12294 34053 ft 452 kts 355°
2026-05-05 18:34 43.15720 -3.12466 34049 ft 452 kts 355°
2026-05-05 18:34 43.21990 -3.12636 34058 ft 452 kts 355°
2026-05-05 18:35 43.28265 -3.12816 34051 ft 451 kts 355°
2026-05-05 18:35 43.34532 -3.12999 34045 ft 451 kts 355°
2026-05-05 18:36 43.40816 -3.13178 34040 ft 451 kts 355°
2026-05-05 18:36 43.47093 -3.13346 34121 ft 453 kts 358°
2026-05-05 18:37 43.50237 -3.12882 34409 ft 456 kts
2026-05-05 18:37 43.53371 -3.12189 34682 ft 456 kts
2026-05-05 18:37 43.56500 -3.11488 34941 ft 456 kts
2026-05-05 18:37 43.59633 -3.10780 35202 ft 456 kts
2026-05-05 18:38 43.62765 -3.10071 35450 ft 456 kts
2026-05-05 18:38 43.65904 -3.09362 35688 ft 456 kts
2026-05-05 18:38 43.69033 -3.08656 35911 ft 456 kts
2026-05-05 18:38 43.72166 -3.07948 35993 ft 457 kts
2026-05-05 18:39 43.78456 -3.06533 36008 ft 457 kts
2026-05-05 18:39 43.84699 -3.05129 35998 ft 457 kts
2026-05-05 18:40 43.90993 -3.03709 35991 ft 459 kts
2026-05-05 18:40 43.97291 -3.02286 35989 ft 459 kts
2026-05-05 18:41 44.03595 -3.00853 35999 ft 459 kts
2026-05-05 18:41 44.09897 -2.99419 35999 ft 459 kts
2026-05-05 18:42 44.16217 -2.97978 35994 ft 459 kts
2026-05-05 18:42 44.22525 -2.96541 36008 ft 459 kts
2026-05-05 18:43 44.28839 -2.95094 36006 ft 459 kts
2026-05-05 18:43 44.35153 -2.93642 36001 ft 460 kts
2026-05-05 18:44 44.41471 -2.92193 36009 ft 459 kts
2026-05-05 18:44 44.47778 -2.90732 36006 ft 459 kts
2026-05-05 18:45 44.54077 -2.89265 35991 ft 459 kts
2026-05-05 18:45 44.60380 -2.87807 35995 ft 458 kts
2026-05-05 18:46 44.66471 -2.86402 35988 ft 458 kts
2026-05-05 18:46 44.72769 -2.84957 35988 ft 457 kts
2026-05-05 18:47 44.79047 -2.83494 35984 ft 457 kts
2026-05-05 18:47 44.85317 -2.82026 35981 ft 457 kts
2026-05-05 18:48 44.91587 -2.80564 35980 ft 456 kts
2026-05-05 18:48 44.97849 -2.79097 35982 ft 456 kts
2026-05-05 18:49 45.04110 -2.77626 35974 ft 456 kts
2026-05-05 18:49 45.10362 -2.76148 35973 ft 455 kts
2026-05-05 18:50 45.16611 -2.74665 35974 ft 455 kts
2026-05-05 18:50 45.22865 -2.73187 35969 ft 455 kts
2026-05-05 18:51 45.29109 -2.71715 35967 ft 455 kts
2026-05-05 18:51 45.35349 -2.70230 35966 ft 455 kts
2026-05-05 18:52 45.41598 -2.68737 35957 ft 455 kts
2026-05-05 18:52 45.47859 -2.67246 35954 ft 456 kts
2026-05-05 18:53 45.54084 -2.65764 35949 ft 456 kts
2026-05-05 18:53 45.60386 -2.64251 35946 ft 456 kts
2026-05-05 18:54 45.66608 -2.62748 35945 ft 457 kts
2026-05-05 18:54 45.72879 -2.61237 35948 ft 457 kts
2026-05-05 18:55 45.78103 -2.59969 35950 ft 457 kts
2026-05-05 18:55 45.84373 -2.58449 35955 ft 457 kts
2026-05-05 18:56 45.90644 -2.56918 35952 ft 456 kts 10°
2026-05-05 18:56 45.96688 -2.54953 35952 ft 456 kts 14°
2026-05-05 18:57 46.02808 -2.52525 35948 ft 456 kts 15°
2026-05-05 18:57 46.08942 -2.50093 35943 ft 456 kts 15°
2026-05-05 18:58 46.15082 -2.47807 35944 ft 455 kts 14°
2026-05-05 18:58 46.21226 -2.45565 35946 ft 455 kts 14°
2026-05-05 18:59 46.27351 -2.43307 35945 ft 454 kts 14°
2026-05-05 18:59 46.33206 -2.41124 35940 ft 454 kts 14°
2026-05-05 19:00 46.39323 -2.38829 35930 ft 454 kts 14°
2026-05-05 19:00 46.45443 -2.36551 35926 ft 454 kts 14°
2026-05-05 19:01 46.51418 -2.34323 35923 ft 454 kts 14°
2026-05-05 19:01 46.57533 -2.32024 35923 ft 455 kts 15°
2026-05-05 19:02 46.63673 -2.29706 35926 ft 455 kts 15°
2026-05-05 19:02 46.69751 -2.27406 35926 ft 454 kts 15°
2026-05-05 19:03 46.75874 -2.25095 35926 ft 454 kts 15°
2026-05-05 19:03 46.82611 -2.22539 35926 ft 454 kts 15°
2026-05-05 19:04 46.88106 -2.20450 35921 ft 454 kts 15°
2026-05-05 19:04 46.94081 -2.18178 35921 ft 454 kts 15°
2026-05-05 19:05 47.00193 -2.15843 35923 ft 454 kts 15°
2026-05-05 19:05 47.06100 -2.13575 35927 ft 453 kts 15°
2026-05-05 19:06 47.12162 -2.11244 35931 ft 453 kts 15°
2026-05-05 19:06 47.18265 -2.08907 35926 ft 453 kts 15°
2026-05-05 19:07 47.24363 -2.06557 35928 ft 453 kts 15°
2026-05-05 19:07 47.30467 -2.04196 35916 ft 454 kts 15°
2026-05-05 19:08 47.36589 -2.01827 35910 ft 454 kts 15°
2026-05-05 19:08 47.42705 -1.99449 35904 ft 455 kts 15°
2026-05-05 19:09 47.48822 -1.97066 35907 ft 455 kts 15°
2026-05-05 19:09 47.54958 -1.94670 35905 ft 455 kts 15°
2026-05-05 19:10 47.61087 -1.92281 35903 ft 455 kts 16°
2026-05-05 19:10 47.67046 -1.89947 35910 ft 455 kts 16°
2026-05-05 19:11 47.73177 -1.87550 35915 ft 454 kts 15°
2026-05-05 19:11 47.79293 -1.85136 35907 ft 454 kts 16°
2026-05-05 19:12 47.85362 -1.82727 35928 ft 454 kts 16°
2026-05-05 19:12 47.91472 -1.80297 35942 ft 453 kts 16°
2026-05-05 19:13 47.97564 -1.77877 35952 ft 453 kts 15°
2026-05-05 19:13 48.03661 -1.75449 35950 ft 453 kts 17°
2026-05-05 19:14 48.06761 -1.74519 35950 ft 454 kts
2026-05-05 19:14 48.09920 -1.74369 35949 ft 455 kts
2026-05-05 19:14 48.16214 -1.74161 35947 ft 455 kts
2026-05-05 19:15 48.22558 -1.73972 35935 ft 455 kts
2026-05-05 19:15 48.28899 -1.73808 35934 ft 455 kts
2026-05-05 19:16 48.35233 -1.73645 35934 ft 455 kts
2026-05-05 19:16 48.41576 -1.73491 35934 ft 455 kts
2026-05-05 19:17 48.47915 -1.73326 35931 ft 456 kts
2026-05-05 19:17 48.54224 -1.73149 35932 ft 456 kts
2026-05-05 19:18 48.60573 -1.72971 35932 ft 456 kts
2026-05-05 19:18 48.66926 -1.72804 35937 ft 456 kts
2026-05-05 19:19 48.73274 -1.72641 35941 ft 456 kts
2026-05-05 19:19 48.79623 -1.72472 35944 ft 456 kts
2026-05-05 19:20 48.85981 -1.72297 35942 ft 456 kts
2026-05-05 19:20 48.92336 -1.72131 35953 ft 456 kts
2026-05-05 19:21 48.98690 -1.71953 35952 ft 456 kts
2026-05-05 19:21 49.04876 -1.71773 35952 ft 456 kts
2026-05-05 19:22 49.11231 -1.71599 35952 ft 456 kts
2026-05-05 19:22 49.17583 -1.71426 35954 ft 456 kts
2026-05-05 19:23 49.23894 -1.71250 35953 ft 456 kts
2026-05-05 19:23 49.30251 -1.71079 35949 ft 456 kts
2026-05-05 19:24 49.36605 -1.70912 35962 ft 456 kts
2026-05-05 19:24 49.42954 -1.70737 35965 ft 456 kts
2026-05-05 19:25 49.49301 -1.70555 35965 ft 456 kts
2026-05-05 19:25 49.55639 -1.70379 35965 ft 456 kts
2026-05-05 19:26 49.61981 -1.70206 35962 ft 455 kts
2026-05-05 19:26 49.68318 -1.70029 35967 ft 455 kts
2026-05-05 19:27 49.74619 -1.69853 35963 ft 455 kts
2026-05-05 19:27 49.80950 -1.69672 35965 ft 455 kts
2026-05-05 19:28 49.87060 -1.69501 35935 ft 455 kts
2026-05-05 19:28 49.90214 -1.69414 35675 ft 453 kts
2026-05-05 19:28 49.93365 -1.69327 35424 ft 453 kts
2026-05-05 19:29 49.96372 -1.69243 35186 ft 452 kts
2026-05-05 19:29 49.99499 -1.68795 34935 ft 450 kts 13°
2026-05-05 19:29 50.02448 -1.67218 34700 ft 449 kts 24°
2026-05-05 19:29 50.05312 -1.65277 34458 ft 449 kts 24°
2026-05-05 19:30 50.07999 -1.63435 34238 ft 449 kts 24°
2026-05-05 19:30 50.10866 -1.61460 33510 ft 452 kts 24°
2026-05-05 19:30 50.13753 -1.59465 32584 ft 455 kts 24°
2026-05-05 19:30 50.16623 -1.57481 31691 ft 457 kts 24°
2026-05-05 19:31 50.19348 -1.55592 30859 ft 459 kts 24°
2026-05-05 19:31 50.22316 -1.53530 29807 ft 464 kts 24°
2026-05-05 19:31 50.25262 -1.51484 29148 ft 459 kts 24°
2026-05-05 19:31 50.28154 -1.49477 28565 ft 452 kts 24°
2026-05-05 19:32 50.30974 -1.47525 27948 ft 447 kts 24°
2026-05-05 19:32 50.33808 -1.45565 27336 ft 442 kts 24°
2026-05-05 19:32 50.36604 -1.43623 26719 ft 437 kts 24°
2026-05-05 19:32 50.39201 -1.41815 26157 ft 433 kts 24°
2026-05-05 19:33 50.41025 -1.40545 25756 ft 431 kts 24°
2026-05-05 19:33 50.44669 -1.38001 24961 ft 426 kts 23°
2026-05-05 19:33 50.47363 -1.36117 24371 ft 422 kts 23°
2026-05-05 19:33 50.49138 -1.34871 23988 ft 420 kts 23°
2026-05-05 19:34 50.52689 -1.32377 23179 ft 415 kts 23°
2026-05-05 19:34 50.55299 -1.30541 22605 ft 410 kts 23°
2026-05-05 19:34 50.57884 -1.28720 22088 ft 405 kts 23°
2026-05-05 19:35 50.62969 -1.25143 21068 ft 397 kts 24°
2026-05-05 19:35 50.65484 -1.23376 20573 ft 394 kts 23°
2026-05-05 19:35 50.67889 -1.21684 20103 ft 392 kts 23°
2026-05-05 19:35 50.70359 -1.19942 19615 ft 389 kts 24°
2026-05-05 19:36 50.72822 -1.18199 19134 ft 387 kts 24°
2026-05-05 19:36 50.75270 -1.16461 18632 ft 385 kts 24°
2026-05-05 19:36 50.77705 -1.14729 18120 ft 383 kts 24°
2026-05-05 19:36 50.79314 -1.13586 17754 ft 381 kts 24°
2026-05-05 19:37 50.81726 -1.11873 17228 ft 377 kts 24°
2026-05-05 19:37 50.84883 -1.09626 16542 ft 372 kts 24°
2026-05-05 19:37 50.86472 -1.08494 16177 ft 370 kts 24°
2026-05-05 19:37 50.88816 -1.06819 15656 ft 367 kts 24°
2026-05-05 19:38 50.91130 -1.05163 15120 ft 364 kts 24°
2026-05-05 19:38 50.93428 -1.03520 14601 ft 361 kts 24°
2026-05-05 19:38 50.95710 -1.01889 14072 ft 359 kts 24°
2026-05-05 19:38 50.97976 -1.00270 13527 ft 357 kts 24°
2026-05-05 19:39 51.00139 -0.98354 12970 ft 354 kts 34°
2026-05-05 19:39 51.02003 -0.95811 12256 ft 357 kts 47°
2026-05-05 19:39 51.03611 -0.92874 11963 ft 349 kts 47°
2026-05-05 19:39 51.05202 -0.90047 11712 ft 347 kts 47°
2026-05-05 19:40 51.06840 -0.87180 11455 ft 345 kts 47°
2026-05-05 19:40 51.08344 -0.84549 11223 ft 344 kts 47°
2026-05-05 19:40 51.09942 -0.81734 10971 ft 338 kts 47°
2026-05-05 19:40 51.11488 -0.78987 10721 ft 328 kts 47°
2026-05-05 19:41 51.12987 -0.76311 10483 ft 319 kts 47°
2026-05-05 19:41 51.14432 -0.73718 10399 ft 306 kts 47°
2026-05-05 19:41 51.15818 -0.71229 10322 ft 294 kts 47°
2026-05-05 19:41 51.17150 -0.68836 10247 ft 283 kts 47°
2026-05-05 19:42 51.18429 -0.66532 10173 ft 272 kts 47°
2026-05-05 19:42 51.19658 -0.64318 10093 ft 261 kts 47°
2026-05-05 19:42 51.20848 -0.62194 10024 ft 253 kts 43°
2026-05-05 19:42 51.22307 -0.60736 9955 ft 248 kts 14°
2026-05-05 19:43 51.23978 -0.60657 9887 ft 245 kts 344°
2026-05-05 19:43 51.25469 -0.61992 9809 ft 246 kts 314°
2026-05-05 19:43 51.26470 -0.64186 9637 ft 251 kts 303°
2026-05-05 19:43 51.27357 -0.66586 9307 ft 250 kts 301°
2026-05-05 19:44 51.28219 -0.68999 8973 ft 251 kts 301°
2026-05-05 19:44 51.29086 -0.71446 8548 ft 255 kts 301°
2026-05-05 19:44 51.29961 -0.73932 8140 ft 258 kts 301°
2026-05-05 19:44 51.30841 -0.76441 7813 ft 258 kts 301°
2026-05-05 19:45 51.31710 -0.78932 7556 ft 255 kts 301°
2026-05-05 19:45 51.32565 -0.81391 7307 ft 252 kts 301°
2026-05-05 19:45 51.33411 -0.83828 6925 ft 249 kts 301°
2026-05-05 19:45 51.34278 -0.86217 6430 ft 246 kts 308°
2026-05-05 19:46 51.35568 -0.87914 5909 ft 240 kts 339°
2026-05-05 19:46 51.37186 -0.88367 5585 ft 236 kts 359°
2026-05-05 19:46 51.38823 -0.88400 5301 ft 234 kts
2026-05-05 19:46 51.40442 -0.88388 5015 ft 231 kts
2026-05-05 19:47 51.42042 -0.88376 4743 ft 229 kts
2026-05-05 19:47 51.43632 -0.88309 4452 ft 227 kts
2026-05-05 19:47 51.45037 -0.87279 4162 ft 223 kts 43°
2026-05-05 19:47 51.45931 -0.85308 4018 ft 214 kts 59°
2026-05-05 19:48 51.46619 -0.83280 4005 ft 199 kts 60°
2026-05-05 19:48 51.47138 -0.81267 3998 ft 196 kts 78°
2026-05-05 19:48 51.47321 -0.79089 3961 ft 198 kts 78°
2026-05-05 19:48 51.47515 -0.76885 3622 ft 201 kts 83°
2026-05-05 19:49 51.47595 -0.74637 3333 ft 201 kts 86°
2026-05-05 19:49 51.47623 -0.72424 3059 ft 201 kts 87°
2026-05-05 19:49 51.47639 -0.70188 2794 ft 199 kts 87°
2026-05-05 19:49 51.47651 -0.68024 2519 ft 189 kts 87°
2026-05-05 19:50 51.47663 -0.65942 2295 ft 179 kts 88°
2026-05-05 19:50 51.47674 -0.64017 2037 ft 171 kts 88°
2026-05-05 19:50 51.47684 -0.62113 1809 ft 169 kts 88°
2026-05-05 19:50 51.47693 -0.60474 1600 ft 166 kts 88°
2026-05-05 19:51 51.47701 -0.58733 1372 ft 148 kts 88°
2026-05-05 19:51 51.47708 -0.57335 1205 ft 141 kts 88°
2026-05-05 19:51 51.47716 -0.55776 1013 ft 138 kts 88°
2026-05-05 19:51 51.47723 -0.54258 827 ft 137 kts 88°
2026-05-05 19:52 51.47730 -0.52724 646 ft 137 kts 88°
2026-05-05 19:52 51.47737 -0.51195 458 ft 138 kts 88°
2026-05-05 19:52 51.47740 -0.49661 258 ft 137 kts 86°
2026-05-05 19:52 51.47748 -0.48170 96 ft 135 kts 86°
2026-05-05 19:53 51.47758 -0.46886 91 ft 89 kts 90°
2026-05-05 19:53 51.47760 -0.46168 86 ft 39 kts 89°
2026-05-05 19:53 51.47758 -0.45905 88 ft 24 kts 91°
2026-05-05 19:53 51.47759 -0.45596 88 ft 20 kts 89°
2026-05-05 19:54 51.47672 -0.45469 87 ft 20 kts 178°
2026-05-05 19:54 51.47607 -0.45502 86 ft 14 kts 229°
2026-05-05 19:54 51.47596 -0.45707 89 ft 21 kts 270°
2026-05-05 19:54 51.47597 -0.45949 86 ft 23 kts 270°
2026-05-05 19:55 51.47599 -0.46220 86 ft 25 kts 271°
2026-05-05 19:55 51.47595 -0.46520 90 ft 28 kts 269°
2026-05-05 19:55 51.47591 -0.46833 86 ft 29 kts 261°
2026-05-05 19:55 51.47584 -0.47172 88 ft 31 kts 271°
2026-05-05 19:56 51.47586 -0.47535 86 ft 33 kts 268°
2026-05-05 19:56 51.47582 -0.47916 90 ft 35 kts 269°
2026-05-05 19:56 51.47580 -0.48220 89 ft 27 kts 270°
2026-05-05 19:56 51.47565 -0.48468 89 ft 1 kts 221°
2026-05-05 19:57 51.47513 -0.48476 86 ft 17 kts 180°
2026-05-05 19:57 51.47412 -0.48475 86 ft 24 kts 179°
2026-05-05 19:57 51.47175 -0.48471 88 ft 27 kts 180°
2026-05-05 19:57 51.47029 -0.48472 88 ft 19 kts 179°
2026-05-05 19:58 51.46907 -0.48474 89 ft 10 kts 189°
2026-05-05 19:58 51.46886 -0.48557 86 ft 10 kts 305°
2026-05-05 19:58 51.46914 -0.48575 86 ft 2 kts
2026-05-05 19:58 51.46930 -0.48573 86 ft 0 kts